Volver al catálogo

STARLINK-33699

ActivoComunicacionesVLEO
NORAD 63328·PAYLOAD·🇺🇸 United States

Lanzado Mar 18, 2025 desde Cape Canaveral Space Force Station

Loading…

Próximos Pases (próximas 24 horas)

TLE

ActualizadoSource: CelesTrak SupGP

Época: Sep 14, 2026, 15:32 UTC

1 63328C 25057X   26257.64770833 -.00056872  00000+0 -20601-2 0  2578
2 63328  43.0040  35.9550 0001336 274.2777 163.0180 15.27603156    17

Sigue STARLINK-33699 en tiempo real con AllMySat

Download on the App Store